GAF7KW EDDN-EDDC

Flight info

Callsign GAF7KW
Flight time 1h 3m
Altitude 7000
Route ERETO1G ERETO Z715 ABKIS/N0176F080 Q240 DRN
Aircraft DA42/L-SBDGRY/S

Departure

Time 2026-05-07 14:22
Airport Nuremberg Airport (EDDN)

Arrival

Time 2026-05-07 15:25
Airport Dresden Airport (EDDC)
Time Latitude Longitude Altitude Speed Heading
2026-05-07 13:54 49.49452 11.06886 1018 ft 0 kts 277°
2026-05-07 14:10 49.49463 11.06913 1019 ft 9 kts 37°
2026-05-07 14:10 49.49524 11.06960 1019 ft 15 kts 96°
2026-05-07 14:11 49.49508 11.07128 1019 ft 16 kts 96°
2026-05-07 14:11 49.49548 11.07196 1020 ft 15 kts
2026-05-07 14:11 49.49637 11.07240 1021 ft 10 kts 85°
2026-05-07 14:11 49.49628 11.07347 1021 ft 11 kts 100°
2026-05-07 14:12 49.49617 11.07462 1022 ft 11 kts 97°
2026-05-07 14:12 49.49602 11.07609 1023 ft 16 kts 98°
2026-05-07 14:12 49.49588 11.07755 1024 ft 8 kts 97°
2026-05-07 14:12 49.49583 11.07810 1024 ft 11 kts 98°
2026-05-07 14:13 49.49564 11.07997 1025 ft 20 kts 98°
2026-05-07 14:13 49.49544 11.08202 1025 ft 19 kts 100°
2026-05-07 14:13 49.49551 11.08352 1027 ft 13 kts 26°
2026-05-07 14:13 49.49607 11.08373 1026 ft 10 kts 32°
2026-05-07 14:14 49.49635 11.08425 1025 ft 0 kts 53°
2026-05-07 14:14 49.49636 11.08428 1025 ft 2 kts 50°
2026-05-07 14:14 49.49637 11.08428 1025 ft 0 kts 49°
2026-05-07 14:14 49.49638 11.08431 1025 ft 2 kts 53°
2026-05-07 14:15 49.49639 11.08433 1025 ft 0 kts 54°
2026-05-07 14:20 49.49650 11.08457 1025 ft 12 kts 53°
2026-05-07 14:20 49.49709 11.08554 1025 ft 20 kts 24°
2026-05-07 14:20 49.49806 11.08467 1024 ft 0 kts 280°
2026-05-07 14:20 49.49806 11.08468 1024 ft 0 kts 281°
2026-05-07 14:21 49.49812 11.08401 1024 ft 30 kts 278°
2026-05-07 14:21 49.49874 11.07771 1028 ft 84 kts 278°
2026-05-07 14:22 49.49997 11.06468 1409 ft 86 kts 279°
2026-05-07 14:22 49.50050 11.05892 1745 ft 79 kts 278°
2026-05-07 14:22 49.50129 11.05063 2157 ft 78 kts 278°
2026-05-07 14:22 49.50211 11.04238 2543 ft 80 kts 279°
2026-05-07 14:23 49.50297 11.03379 2927 ft 83 kts 281°
2026-05-07 14:23 49.50388 11.02471 3317 ft 89 kts 280°
2026-05-07 14:23 49.50484 11.01511 3691 ft 93 kts 279°
2026-05-07 14:23 49.50583 11.00515 4079 ft 96 kts 279°
2026-05-07 14:24 49.50684 10.99494 4461 ft 97 kts 279°
2026-05-07 14:24 49.50785 10.98458 4853 ft 98 kts 279°
2026-05-07 14:24 49.50887 10.97416 5232 ft 99 kts 279°
2026-05-07 14:24 49.50989 10.96366 5613 ft 100 kts 279°
2026-05-07 14:25 49.51091 10.95310 6003 ft 99 kts 279°
2026-05-07 14:25 49.51191 10.94294 6389 ft 92 kts 280°
2026-05-07 14:25 49.51431 10.93418 6752 ft 87 kts 302°
2026-05-07 14:25 49.51879 10.92768 7045 ft 98 kts 322°
2026-05-07 14:26 49.52657 10.92445 7060 ft 134 kts 354°
2026-05-07 14:26 49.53663 10.92474 7056 ft 153 kts 356°
2026-05-07 14:26 49.54771 10.92518 7054 ft 164 kts 356°
2026-05-07 14:26 49.55930 10.92556 7057 ft 169 kts 356°
2026-05-07 14:27 49.57119 10.92589 7052 ft 172 kts 356°
2026-05-07 14:27 49.58323 10.92622 7052 ft 174 kts 356°
2026-05-07 14:27 49.59538 10.92655 7052 ft 175 kts 356°
2026-05-07 14:27 49.60754 10.92690 7050 ft 175 kts 356°
2026-05-07 14:28 49.61968 10.92722 7052 ft 174 kts 356°
2026-05-07 14:28 49.63179 10.92753 7052 ft 175 kts 356°
2026-05-07 14:28 49.64397 10.92783 7049 ft 175 kts 356°
2026-05-07 14:28 49.65615 10.92814 7048 ft 175 kts 356°
2026-05-07 14:29 49.66816 10.92845 7050 ft 175 kts 356°
2026-05-07 14:29 49.68050 10.92877 7052 ft 175 kts 356°
2026-05-07 14:29 49.69253 10.92920 7044 ft 176 kts
2026-05-07 14:29 49.70436 10.93450 7040 ft 181 kts 22°
2026-05-07 14:30 49.71460 10.94610 7042 ft 184 kts 37°
2026-05-07 14:30 49.72449 10.95912 7037 ft 184 kts 36°
2026-05-07 14:30 49.73423 10.97199 7037 ft 185 kts 37°
2026-05-07 14:30 49.74383 10.98473 7035 ft 184 kts 36°
2026-05-07 14:31 49.75356 10.99761 7035 ft 184 kts 37°
2026-05-07 14:31 49.76331 11.01052 7034 ft 184 kts 37°
2026-05-07 14:31 49.77305 11.02344 7032 ft 184 kts 37°
2026-05-07 14:31 49.78275 11.03630 7031 ft 184 kts 37°
2026-05-07 14:32 49.79244 11.04913 7031 ft 183 kts 37°
2026-05-07 14:32 49.80213 11.06199 7030 ft 183 kts 37°
2026-05-07 14:32 49.81181 11.07484 7029 ft 183 kts 37°
2026-05-07 14:32 49.82148 11.08766 7028 ft 183 kts 37°
2026-05-07 14:33 49.83116 11.10052 7030 ft 183 kts 37°
2026-05-07 14:33 49.84000 11.11473 7019 ft 186 kts 53°
2026-05-07 14:33 49.84588 11.13257 7025 ft 186 kts 61°
2026-05-07 14:33 49.85148 11.15055 7019 ft 185 kts 62°
2026-05-07 14:34 49.85703 11.16844 7018 ft 183 kts 61°
2026-05-07 14:34 49.86255 11.18625 7018 ft 184 kts 62°
2026-05-07 14:34 49.86811 11.20419 7015 ft 185 kts 62°
2026-05-07 14:34 49.87366 11.22214 7014 ft 185 kts 62°
2026-05-07 14:35 49.87921 11.24013 7025 ft 185 kts 61°
2026-05-07 14:35 49.88474 11.25804 7019 ft 184 kts 62°
2026-05-07 14:35 49.89025 11.27586 7025 ft 183 kts 62°
2026-05-07 14:35 49.89573 11.29362 7018 ft 182 kts 62°
2026-05-07 14:36 49.90121 11.31135 7024 ft 183 kts 61°
2026-05-07 14:36 49.90669 11.32912 7025 ft 182 kts 61°
2026-05-07 14:36 49.91214 11.34685 7021 ft 181 kts 62°
2026-05-07 14:36 49.91758 11.36448 7022 ft 181 kts 61°
2026-05-07 14:37 49.92302 11.38221 7023 ft 184 kts 61°
2026-05-07 14:37 49.93586 11.41581 7023 ft 180 kts 41°
2026-05-07 14:37 49.94470 11.42962 7017 ft 181 kts 41°
2026-05-07 14:38 49.95361 11.44353 7018 ft 183 kts 41°
2026-05-07 14:38 49.96269 11.45767 7017 ft 186 kts 42°
2026-05-07 14:38 49.97188 11.47202 7019 ft 188 kts 42°
2026-05-07 14:38 49.98110 11.48650 7018 ft 189 kts 42°
2026-05-07 14:39 49.99034 11.50099 7018 ft 188 kts 42°
2026-05-07 14:39 49.99955 11.51537 7020 ft 187 kts 42°
2026-05-07 14:39 50.00864 11.52963 7015 ft 185 kts 42°
2026-05-07 14:39 50.01766 11.54378 7011 ft 184 kts 42°
2026-05-07 14:40 50.02664 11.55787 7004 ft 183 kts 41°
2026-05-07 14:40 50.03557 11.57187 7004 ft 182 kts 42°
2026-05-07 14:40 50.04451 11.58592 7006 ft 183 kts 42°
2026-05-07 14:40 50.05347 11.60001 7012 ft 183 kts 41°
2026-05-07 14:41 50.06246 11.61416 7008 ft 184 kts 42°
2026-05-07 14:41 50.07142 11.62824 7007 ft 182 kts 43°
2026-05-07 14:41 50.07990 11.64275 7004 ft 180 kts 45°
2026-05-07 14:41 50.08857 11.65680 7004 ft 180 kts 44°
2026-05-07 14:42 50.09723 11.67097 7005 ft 181 kts 44°
2026-05-07 14:42 50.10584 11.68525 7007 ft 181 kts 45°
2026-05-07 14:42 50.11443 11.69953 7003 ft 181 kts 45°
2026-05-07 14:42 50.12303 11.71382 7001 ft 181 kts 45°
2026-05-07 14:43 50.13163 11.72813 7006 ft 181 kts 45°
2026-05-07 14:43 50.14023 11.74244 6998 ft 181 kts 45°
2026-05-07 14:43 50.14882 11.75676 6997 ft 181 kts 45°
2026-05-07 14:43 50.15739 11.77105 6995 ft 180 kts 44°
2026-05-07 14:44 50.16596 11.78531 6995 ft 180 kts 45°
2026-05-07 14:44 50.17451 11.79957 6994 ft 180 kts 44°
2026-05-07 14:44 50.18307 11.81386 6994 ft 180 kts 45°
2026-05-07 14:44 50.19085 11.82917 6991 ft 182 kts 57°
2026-05-07 14:45 50.19737 11.84580 6993 ft 182 kts 56°
2026-05-07 14:45 50.20401 11.86258 6993 ft 182 kts 57°
2026-05-07 14:45 50.21062 11.87936 6995 ft 182 kts 57°
2026-05-07 14:45 50.21725 11.89621 6993 ft 182 kts 57°
2026-05-07 14:46 50.22389 11.91309 6990 ft 182 kts 56°
2026-05-07 14:46 50.23053 11.92997 6990 ft 182 kts 57°
2026-05-07 14:46 50.23716 11.94682 6991 ft 182 kts 57°
2026-05-07 14:46 50.24378 11.96367 6990 ft 182 kts 56°
2026-05-07 14:47 50.25041 11.98057 6989 ft 182 kts 57°
2026-05-07 14:47 50.25704 11.99746 6995 ft 182 kts 57°
2026-05-07 14:47 50.26367 12.01435 6996 ft 182 kts 57°
2026-05-07 14:47 50.27096 12.03062 7000 ft 184 kts 54°
2026-05-07 14:48 50.27816 12.04734 7003 ft 187 kts 54°
2026-05-07 14:48 50.28549 12.06423 7002 ft 188 kts 54°
2026-05-07 14:48 50.29287 12.08105 7003 ft 188 kts 53°
2026-05-07 14:48 50.30017 12.09767 7004 ft 188 kts 53°
2026-05-07 14:49 50.30761 12.11458 7005 ft 188 kts 54°
2026-05-07 14:49 50.31499 12.13142 7005 ft 187 kts 54°
2026-05-07 14:49 50.32230 12.14813 7006 ft 186 kts 53°
2026-05-07 14:49 50.32964 12.16488 7006 ft 186 kts 53°
2026-05-07 14:50 50.33696 12.18160 7005 ft 186 kts 53°
2026-05-07 14:50 50.34425 12.19833 7017 ft 185 kts 55°
2026-05-07 14:50 50.35032 12.21607 7016 ft 184 kts 60°
2026-05-07 14:50 50.35635 12.23380 7016 ft 184 kts 60°
2026-05-07 14:51 50.36238 12.25157 7015 ft 185 kts 60°
2026-05-07 14:51 50.36838 12.26938 7016 ft 185 kts 60°
2026-05-07 14:51 50.37438 12.28723 7011 ft 185 kts 60°
2026-05-07 14:51 50.38037 12.30504 7012 ft 185 kts 60°
2026-05-07 14:52 50.38641 12.32297 7015 ft 186 kts 60°
2026-05-07 14:52 50.39245 12.34095 7014 ft 186 kts 60°
2026-05-07 14:52 50.39847 12.35887 7014 ft 185 kts 60°
2026-05-07 14:52 50.40447 12.37675 7016 ft 185 kts 60°
2026-05-07 14:53 50.41047 12.39463 7013 ft 185 kts 60°
2026-05-07 14:53 50.41645 12.41248 7014 ft 185 kts 60°
2026-05-07 14:53 50.42241 12.43029 7014 ft 184 kts 60°
2026-05-07 14:53 50.42837 12.44809 7014 ft 185 kts 60°
2026-05-07 14:54 50.43434 12.46594 7016 ft 185 kts 60°
2026-05-07 14:54 50.44023 12.48356 7016 ft 185 kts 60°
2026-05-07 14:54 50.44619 12.50140 7006 ft 184 kts 60°
2026-05-07 14:54 50.45214 12.51924 7008 ft 185 kts 60°
2026-05-07 14:55 50.45814 12.53724 7006 ft 187 kts 60°
2026-05-07 14:55 50.46415 12.55529 7007 ft 186 kts 61°
2026-05-07 14:55 50.47014 12.57329 7006 ft 186 kts 60°
2026-05-07 14:55 50.47614 12.59130 7012 ft 186 kts 60°
2026-05-07 14:56 50.48214 12.60934 7010 ft 186 kts 61°
2026-05-07 14:56 50.48814 12.62739 7010 ft 186 kts 61°
2026-05-07 14:56 50.49411 12.64536 7010 ft 186 kts 61°
2026-05-07 14:56 50.50007 12.66334 7010 ft 186 kts 61°
2026-05-07 14:57 50.50606 12.68139 7010 ft 187 kts 61°
2026-05-07 14:57 50.51205 12.69948 7010 ft 187 kts 61°
2026-05-07 14:57 50.51804 12.71757 7000 ft 186 kts 61°
2026-05-07 14:57 50.52401 12.73562 7000 ft 186 kts 61°
2026-05-07 14:58 50.52998 12.75365 6999 ft 186 kts 61°
2026-05-07 14:58 50.53593 12.77169 6999 ft 186 kts 61°
2026-05-07 14:58 50.54188 12.78969 6999 ft 185 kts 61°
2026-05-07 14:58 50.54781 12.80768 6999 ft 185 kts 61°
2026-05-07 14:59 50.55376 12.82572 6999 ft 186 kts 61°
2026-05-07 14:59 50.55970 12.84375 7001 ft 186 kts 61°
2026-05-07 14:59 50.56563 12.86180 6999 ft 185 kts 61°
2026-05-07 14:59 50.57155 12.87977 7000 ft 185 kts 61°
2026-05-07 15:00 50.57749 12.89783 6999 ft 186 kts 61°
2026-05-07 15:00 50.58335 12.91570 7001 ft 186 kts 61°
2026-05-07 15:00 50.58929 12.93379 6999 ft 185 kts 61°
2026-05-07 15:00 50.59521 12.95182 6989 ft 185 kts 61°
2026-05-07 15:01 50.60115 12.96992 6988 ft 187 kts 61°
2026-05-07 15:01 50.60708 12.98805 6993 ft 186 kts 62°
2026-05-07 15:01 50.61300 13.00610 7002 ft 186 kts 61°
2026-05-07 15:01 50.61892 13.02420 7003 ft 186 kts 61°
2026-05-07 15:02 50.62486 13.04234 7003 ft 186 kts 61°
2026-05-07 15:02 50.63171 13.05962 7001 ft 186 kts 45°
2026-05-07 15:02 50.64124 13.07324 7007 ft 186 kts 39°
2026-05-07 15:02 50.65102 13.08684 7003 ft 188 kts 39°
2026-05-07 15:03 50.66082 13.10046 6996 ft 187 kts 39°
2026-05-07 15:03 50.67057 13.11399 6995 ft 186 kts 39°
2026-05-07 15:03 50.68026 13.12746 6993 ft 185 kts 39°
2026-05-07 15:03 50.68988 13.14086 6995 ft 185 kts 39°
2026-05-07 15:04 50.69952 13.15428 7008 ft 185 kts 39°
2026-05-07 15:04 50.70919 13.16777 7006 ft 186 kts 39°
2026-05-07 15:04 50.71868 13.18103 7004 ft 184 kts 39°
2026-05-07 15:04 50.72825 13.19438 7004 ft 183 kts 39°
2026-05-07 15:05 50.73784 13.20776 6995 ft 185 kts 39°
2026-05-07 15:05 50.74751 13.22126 6996 ft 186 kts 39°
2026-05-07 15:05 50.75721 13.23484 6999 ft 187 kts 39°
2026-05-07 15:05 50.76697 13.24852 7001 ft 189 kts 39°
2026-05-07 15:06 50.77691 13.26240 7008 ft 192 kts 38°
2026-05-07 15:06 50.78693 13.27643 7005 ft 193 kts 39°
2026-05-07 15:06 50.79691 13.29047 7000 ft 191 kts 39°
2026-05-07 15:06 50.80681 13.30436 7000 ft 190 kts 39°
2026-05-07 15:07 50.81669 13.31819 7002 ft 188 kts 39°
2026-05-07 15:07 50.82314 13.32727 7001 ft 187 kts 39°
2026-05-07 15:07 50.83282 13.34085 7002 ft 185 kts 39°
2026-05-07 15:07 50.84244 13.35437 7002 ft 184 kts 39°
2026-05-07 15:08 50.85203 13.36787 6998 ft 185 kts 38°
2026-05-07 15:08 50.86166 13.38139 6999 ft 184 kts 39°
2026-05-07 15:08 50.87118 13.39480 7001 ft 183 kts 39°
2026-05-07 15:08 50.88071 13.40821 7003 ft 183 kts 39°
2026-05-07 15:09 50.89025 13.42169 7002 ft 184 kts 38°
2026-05-07 15:09 50.89979 13.43513 7001 ft 183 kts 39°
2026-05-07 15:09 50.90917 13.44836 7004 ft 182 kts 39°
2026-05-07 15:09 50.91865 13.46174 7008 ft 183 kts 39°
2026-05-07 15:10 50.92818 13.47521 7032 ft 184 kts 39°
2026-05-07 15:10 50.93785 13.48885 7035 ft 188 kts 38°
2026-05-07 15:10 50.94765 13.50274 7031 ft 187 kts 39°
2026-05-07 15:10 50.95735 13.51650 6919 ft 188 kts 39°
2026-05-07 15:11 50.96669 13.52985 6244 ft 182 kts 39°
2026-05-07 15:11 50.97584 13.54277 5981 ft 166 kts 38°
2026-05-07 15:11 50.98441 13.55473 5798 ft 163 kts 39°
2026-05-07 15:11 50.99284 13.56662 5576 ft 160 kts 39°
2026-05-07 15:12 51.00096 13.57817 5375 ft 155 kts 38°
2026-05-07 15:12 51.00892 13.58942 5175 ft 152 kts 38°
2026-05-07 15:12 51.01661 13.60089 5020 ft 150 kts 47°
2026-05-07 15:12 51.02292 13.61336 5015 ft 140 kts 48°
2026-05-07 15:13 51.02896 13.62518 5018 ft 139 kts 47°
2026-05-07 15:13 51.03545 13.63778 5024 ft 156 kts 48°
2026-05-07 15:13 51.04252 13.65169 5029 ft 167 kts 49°
2026-05-07 15:13 51.04982 13.66612 5028 ft 173 kts 49°
2026-05-07 15:14 51.05745 13.68119 5023 ft 177 kts 50°
2026-05-07 15:14 51.06518 13.69649 5025 ft 179 kts 49°
2026-05-07 15:14 51.07302 13.71193 5026 ft 180 kts 49°
2026-05-07 15:14 51.08090 13.72747 5029 ft 181 kts 49°
2026-05-07 15:15 51.08880 13.74306 5030 ft 181 kts 49°
2026-05-07 15:15 51.09674 13.75874 5024 ft 182 kts 49°
2026-05-07 15:15 51.10470 13.77445 5024 ft 182 kts 49°
2026-05-07 15:15 51.11260 13.79006 5024 ft 180 kts 49°
2026-05-07 15:16 51.12045 13.80560 5022 ft 180 kts 49°
2026-05-07 15:16 51.12827 13.82109 5023 ft 180 kts 49°
2026-05-07 15:16 51.13616 13.83666 5023 ft 181 kts 49°
2026-05-07 15:16 51.14402 13.85227 5023 ft 180 kts 50°
2026-05-07 15:17 51.15189 13.86788 5022 ft 181 kts 49°
2026-05-07 15:17 51.15974 13.88348 5022 ft 181 kts 49°
2026-05-07 15:17 51.16761 13.89909 5025 ft 180 kts 49°
2026-05-07 15:17 51.17548 13.91473 5022 ft 181 kts 50°
2026-05-07 15:18 51.18338 13.93042 4930 ft 185 kts 49°
2026-05-07 15:18 51.19160 13.94679 4681 ft 193 kts 49°
2026-05-07 15:18 51.20012 13.96380 4418 ft 198 kts 49°
2026-05-07 15:18 51.20834 13.98025 4162 ft 178 kts 50°
2026-05-07 15:19 51.21602 13.99467 3949 ft 164 kts 40°
2026-05-07 15:19 51.22592 14.00091 3809 ft 149 kts
2026-05-07 15:19 51.23550 13.99696 3679 ft 140 kts 330°
2026-05-07 15:19 51.24180 13.98563 3557 ft 137 kts 299°
2026-05-07 15:20 51.24725 13.97399 3440 ft 131 kts 316°
2026-05-07 15:20 51.25339 13.96335 3344 ft 127 kts 316°
2026-05-07 15:20 51.25928 13.95307 3201 ft 124 kts 316°
2026-05-07 15:20 51.26359 13.94125 3030 ft 129 kts 282°
2026-05-07 15:21 51.26149 13.92789 2936 ft 131 kts 236°
2026-05-07 15:21 51.25443 13.92081 3010 ft 115 kts 188°
2026-05-07 15:21 51.24676 13.92019 3011 ft 108 kts 195°
2026-05-07 15:21 51.24059 13.91385 3010 ft 105 kts 219°
2026-05-07 15:22 51.23470 13.90623 3021 ft 113 kts 220°
2026-05-07 15:22 51.22834 13.89779 3003 ft 127 kts 221°
2026-05-07 15:22 51.22113 13.88790 2845 ft 146 kts 221°
2026-05-07 15:22 51.21300 13.87657 2635 ft 163 kts 223°
2026-05-07 15:23 51.20423 13.86444 2406 ft 171 kts 222°
2026-05-07 15:23 51.19517 13.85188 2165 ft 174 kts 221°
2026-05-07 15:23 51.18597 13.83917 1926 ft 176 kts 223°
2026-05-07 15:23 51.17668 13.82630 1671 ft 177 kts 223°
2026-05-07 15:24 51.16740 13.81348 1407 ft 176 kts 222°
2026-05-07 15:24 51.15836 13.80110 1181 ft 154 kts 223°
2026-05-07 15:24 51.15140 13.79161 1011 ft 116 kts 223°
2026-05-07 15:24 51.14592 13.78395 836 ft 103 kts 223°
2026-05-07 15:25 51.14047 13.77643 721 ft 99 kts 223°
2026-05-07 15:25 51.13636 13.77074 727 ft 62 kts 220°
2026-05-07 15:25 51.13405 13.76767 730 ft 26 kts 196°
2026-05-07 15:25 51.13284 13.76898 730 ft 9 kts 133°
2026-05-07 15:26 51.13237 13.76969 730 ft 16 kts 171°
2026-05-07 15:26 51.13153 13.76903 736 ft 12 kts 200°
2026-05-07 15:26 51.13085 13.76948 740 ft 0 kts 127°